Other Public Products
Issued by NWS Charleston, SC

Current Version | Previous Version | Graphics & Text | Print | Product List | Glossary On
Versions: 1 2 3 4 5 6 7 8 9 10 11 12 13 14 15 16 17 18 19 20 21 22 23 24 25 26 27 28 29 30 31 32 33 34 35 36 37 38 39 40 41 42 43 44 45 46 47 48 49 50
000
FPUS82 KCHS 261911
OPUCHS

TEST...KCHS/KSAV Gateway Observations...TEST
National Weather Service Charleston SC
200 PM EST SUN FEB 26 2017

NOTE: "fair" indicates few or no clouds below 12,000 feet with no
significant weather and/or obstructions to visibility.

SCZ050-WAZ558-NCZ071-TXZ119-213-PAZ071-DCZ001-FLZ074-172-MI076-
NYZ176-178-MAZ016-IL014-TNZ027-NJZ106-GAZ044-MD014-262000-
...Gateway Observations for Charleston International...

CITY           SKY/WX    TMP DP  RH WIND       PRES   REMARKS
Chas Airport   SUNNY     65  18  16 VRB6      30.19F
Seattle        LGT RAIN  38  35  89 E12       29.69S WCI  30
Charlotte      SUNNY     55  15  20 VRB3      30.18F
Dallas DFW     CLOUDY    62  46  55 S13       29.93F
Dallas Love    CLOUDY    61  46  57 S13       29.95F
Philladelphia  MOSUNNY   43  15  32 W17G29    30.10S
Wash National  MOSUNNY   47  18  31 SW14      30.14F
Baltimore      MOSUNNY   42  18  37 NW16      30.13S
Miami          MOSUNNY   82  65  56 E10       30.08F
Detroit        PTSUNNY   40  18  41 SW20      30.05F WCI  30
Newark         MOSUNNY   44  16  32 W10G26    30.04R
Laguardia      MOSUNNY   43  16  33 W13       30.02R
J F K          MOSUNNY   44  16  32 NW17G28   30.03R
Boston Logan   MOSUNNY   42  17  36 W22G30    29.86R
Ft. Lauderdale MOSUNNY   82  67  60 NE14      30.07F
Chicago O`Hare PTSUNNY   45  19  35 SW22G31   29.93F
Chicago Midway MOSUNNY   47  18  31 SW21G35   29.95F
Houston Bush   PTSUNNY   72  57  59 SE17      30.00F
Houston Hobby  PTSUNNY   74  57  55 SE14G23   29.99F
Nashville      MOSUNNY   53  15  22 SE8       30.20F
Atlanta        MOSUNNY   59  15  18 NW5       30.20F

$$

GAZ044-118-TXZ119-213-NCZ071-DCZ001-MDZ014-506-PAZ021-071-NJZ106-
NYZ176-178-MAZ106-OHZ011-021-055-MIZ076-KYZ091-ILZ014-INZ047-
MNZ060-ONZ431-262000-
...Gateway Observations for Savannah International...

CITY           SKY/WX    TMP DP  RH WIND       PRES   REMARKS
Savannah Arpt  SUNNY     65  18  16 VRB6      30.20F
Atlanta        MOSUNNY   59  15  18 NW5       30.20F
Charlotte      SUNNY     55  15  20 VRB3      30.18F
Dallas DFW     CLOUDY    62  46  55 S13       29.93F
Houston Bush   PTSUNNY   72  57  59 SE17      30.00F
Wash National  MOSUNNY   47  18  31 SW14      30.14F
Wash Dulles    MOSUNNY   45  16  31 VRB6G17   30.13S
Baltimore      MOSUNNY   42  18  37 NW16      30.13S
Philadelphia   MOSUNNY   43  15  32 W17G29    30.10S
Newark         MOSUNNY   44  16  32 W10G26    30.04R
Laguardia      MOSUNNY   43  16  33 W13       30.02R
J F K          MOSUNNY   44  16  32 NW17G28   30.03R
Boston         MOSUNNY   42  17  36 W22G30    29.86R
Pittsburg      MOSUNNY   35  17  47 W12       30.13F WCI  27
Akron          SUNNY     37  18  46 SW13G22   30.12F WCI  29
Cleveland      SUNNY     39  18  42 SW15      30.13F WCI  31
Cincinnati     MOSUNNY   44  14  29 SW8       30.16F
Columbus       SUNNY     39  19  45 SW12G21   30.17F WCI  31
Detroit        PTSUNNY   40  18  41 SW20      30.05F WCI  30
Chicago O`Hare PTSUNNY   45  19  35 SW22G31   29.93F
Minneapolis    PTSUNNY   39  19  44 NW20G25   29.79S WCI  29
Indianapolis   MOSUNNY   45  14  28 S15       30.11F
Toronto Canada PTSUNNY   34  18  51 W16       30.02F WCI  23

$$




USA.gov is the U.S. government's official web portal to all federal, state and local government web resources and services.